Home   Weather   Naples   Past weeks

Flag for USA Past Weather in Naples, Florida, USA — Yesterday and Last 2 Weeks

Now
74 °F

Clear.


Feels Like: 72 °F
Forecast: 79 / 91 °F
Wind: No wind

Location: Naples Municipal

Current Time: Aug 18, 2017 at 11:31:17 pm

Latest Report: Aug 18, 2017 at 10:53 pm


Visibility: 10 mi

Pressure: 30.03 "Hg

Humidity: 91%

Dew Point: 71 °F

Location of NaplesLocation

Past Weather in Naples — Graph

°F

Naples Temperature Yesterday

Maximum temperature yesterday: 91 °F (at 11:53 am)
Minimum temperature yesterday: 77 °F (at 2:53 am)
Average temperature yesterday: 83 °F

High & Low Weather Summary for the Past Weeks

 TemperatureHumidityPressure
High92 °F (Aug 4, 1:53 pm)100% (Aug 11, 4:41 am)30.14 "Hg (Aug 11, 4:41 am)
Low74 °F (Aug 18, 8:53 pm)51% (Aug 7, 3:53 pm)29.93 "Hg (Aug 8, 5:53 pm)
Average84 °F79%30.02 "Hg
* Reported Aug 3 9:53 pm — Aug 18 9:53 pm, Naples. Weather by CustomWeather, © 2017

Note: Actual official high and low records may vary slightly from our data, if they occured in-between our weather recording intervals... More about our weather records

Advertising

Naples Weather History for the Previous 24 Hours

Scroll right to see more
 ConditionsComfort  
Time TempWeatherWind HumidityBarometerVisibility
9:53 pm
Fri, Aug 18
74 °FPartly cloudy.7 mph91%30.04 "Hg10 mi
9:17 pm74 °FThundershowers. Passing clouds.7 mph94%30.03 "Hg10 mi
8:53 pm74 °FThunderstorms. Fog.10 mph94%30.01 "Hg6 mi
7:53 pm87 °FThunderstorms. Partly sunny.8 mph67%30.00 "Hg10 mi
7:16 pm88 °FThundershowers. Scattered clouds.12 mph70%29.95 "Hg10 mi
6:53 pm88 °FPassing clouds.9 mph65%29.95 "Hg10 mi
5:53 pm90 °FPassing clouds.10 mph63%29.96 "Hg10 mi
4:53 pm91 °FPassing clouds.10 mph60%29.95 "Hg10 mi
3:53 pm90 °FPassing clouds.10 mph63%29.96 "Hg10 mi
2:53 pm91 °FPassing clouds.10 mph61%29.97 "Hg10 mi
1:53 pm90 °FScattered clouds.9 mph57%30.00 "Hg10 mi
12:53 pm91 °FScattered clouds.5 mph56%30.01 "Hg10 mi
11:53 am88 °FSunny.No wind61%30.02 "Hg10 mi
10:53 am88 °FPassing clouds.3 mph65%30.03 "Hg9 mi
9:53 am86 °FSunny.6 mph75%30.03 "Hg10 mi
8:53 am81 °FSunny.3 mph88%30.02 "Hg10 mi
7:53 am78 °FSunny.6 mph93%30.01 "Hg10 mi
6:53 am78 °FClear.No wind90%30.00 "Hg10 mi
5:53 am77 °FClear.3 mph94%29.99 "Hg10 mi
4:53 am78 °FClear.No wind90%29.98 "Hg10 mi
3:53 am78 °FClear.3 mph90%29.97 "Hg10 mi
2:53 am78 °FClear.6 mph90%29.98 "Hg10 mi
1:53 am78 °FClear.6 mph90%30.02 "Hg10 mi
12:53 am78 °FClear.6 mph90%30.04 "Hg10 mi
11:53 pm
Thu, Aug 17
79 °FClear.5 mph84%30.04 "Hg10 mi
Weather by CustomWeather, © 2017

See weather overviewHow to use our weather pages